Temp
12 11 11 11 11 13 13 14 14 14 15 14 14 13 14 15 15 14 14 15 16 15 14 15 15 14 11 10 10 10 9 8 7 7 6 5 4 4 3 3 2 1 1 1 0 -0 -1 -1 -2 -2 -2 -3 -3 -3 -3 -3 -3 -3 -3 -2 -2 -2 -1 1 2 3 4 5 6 7 7 7 7 7 7 8 8 8 8 9 9 11 11 12 13 13
12 10 11 12 13 14 14 14 14 14 14 14 13 13 13 14 14 13 14 15 15 14 14 15 16 14 10 9 9 8 7 7 6 6 5 4 3 3 2 2 2 1 1 0 -0 -1 -1 -2 -2 -2 -3 -3 -3 -3 -4 -4 -4 -4 -4 -4 -3 -3 -2 -1 -1 1 1 1 2 4 5 5 6 7 6 7 7 6 7 7 8 9 10 10 11 12
11 10 12 13 14 14 14 14 14 14 14 13 13 13 12 13 14 13 13 14 14 14 14 15 15 12 9 8 7 6 5 4 4 4 3 3 2 1 1 1 1 0 -0 -0 -1 -1 -2 -2 -2 -3 -3 -4 -4 -4 -4 -4 -4 -4 -4 -4 -4 -4 -3 -3 -2 -0 1 1 2 2 3 4 5 6 6 6 6 6 6 7 6 7 9 10 10 11
10 11 12 13 13 13 13 14 13 13 13 12 12 12 12 13 14 13 12 13 14 13 13 13 13 10 7 7 5 5 4 3 3 3 2 2 1 1 0 -0 -0 -1 -1 -1 -2 -2 -2 -2 -3 -3 -4 -4 -4 -4 -4 -4 -4 -4 -4 -5 -5 -5 -4 -3 -3 -1 -0 1 3 3 3 4 5 6 6 7 6 6 6 6 6 7 7 8 9 10
11 11 12 12 12 12 12 12 13 12 11 12 12 12 12 13 13 12 12 12 12 13 12 12 12 10 7 6 5 4 3 3 3 2 2 1 1 0 -0 -1 -1 -1 -2 -2 -2 -2 -3 -3 -3 -4 -4 -4 -5 -5 -5 -5 -5 -5 -5 -5 -5 -5 -5 -4 -4 -3 -1 1 3 4 4 5 5 5 6 6 5 4 5 5 5 6 6 7 8 9
11 11 11 12 12 12 11 11 12 12 11 12 12 12 12 13 13 12 11 12 11 11 12 12 12 11 8 6 5 4 4 3 3 2 1 1 1 0 -1 -1 -1 -2 -2 -2 -3 -3 -3 -3 -3 -4 -5 -5 -5 -5 -5 -5 -5 -5 -5 -5 -5 -5 -5 -5 -4 -4 -3 -2 -1 0 2 2 2 2 2 1 1 1 2 3 4 5 5 6 7 8
11 10 10 10 10 11 11 11 12 11 11 11 11 11 12 13 12 11 11 11 10 11 12 12 11 11 9 6 4 4 4 3 2 1 1 0 -0 -1 -1 -2 -2 -2 -2 -3 -3 -3 -3 -4 -4 -4 -5 -5 -6 -6 -6 -6 -6 -5 -5 -5 -6 -6 -6 -5 -5 -4 -4 -3 -3 -3 -2 -2 -2 -1 -1 -1 -1 -0 0 2 3 4 4 5 5 6
9 10 9 9 10 10 10 10 9 9 10 10 10 10 11 12 11 11 11 11 11 11 12 12 12 11 10 7 4 4 3 2 1 0 -0 -0 -1 -1 -2 -2 -2 -3 -3 -3 -3 -4 -4 -4 -4 -5 -5 -6 -6 -6 -6 -6 -6 -6 -6 -6 -6 -6 -6 -6 -5 -5 -5 -5 -4 -4 -3 -3 -3 -2 -2 -2 -1 -1 -0 1 2 3 3 4 4 5
8 8 8 8 9 9 9 8 8 8 9 9 9 10 11 11 11 11 11 10 11 11 10 11 11 10 10 7 4 5 4 2 1 -0 -1 -1 -1 -1 -2 -2 -2 -3 -3 -3 -4 -4 -4 -4 -5 -5 -5 -6 -6 -7 -7 -7 -7 -6 -6 -6 -6 -6 -6 -6 -6 -6 -6 -5 -5 -5 -4 -4 -4 -3 -3 -2 -2 -1 -1 0 1 2 3 3 4 4
7 7 7 8 7 7 7 8 8 8 8 9 9 9 10 10 10 10 10 10 10 9 8 10 11 10 10 6 3 4 4 3 2 -0 -1 -1 -2 -2 -2 -3 -3 -3 -3 -4 -4 -4 -5 -5 -5 -6 -6 -6 -7 -7 -7 -7 -7 -7 -7 -7 -7 -7 -7 -7 -6 -6 -6 -6 -6 -6 -5 -5 -5 -4 -4 -3 -3 -2 -2 -1 -1 0 1 2 2 3
7 7 7 7 6 6 7 8 9 8 8 9 9 9 9 10 10 10 10 10 9 8 8 10 11 10 9 6 3 3 2 3 2 -2 -2 -2 -2 -2 -3 -3 -3 -4 -4 -4 -4 -5 -5 -5 -6 -6 -6 -7 -7 -8 -8 -8 -8 -8 -8 -7 -7 -7 -7 -7 -7 -7 -7 -7 -6 -6 -6 -6 -5 -5 -5 -4 -4 -4 -3 -3 -2 -2 -1 -0 0 1
7 7 7 6 6 6 7 8 9 8 8 8 8 9 8 9 9 8 9 9 7 7 9 10 11 10 10 6 2 0 0 1 0 -2 -2 -3 -3 -3 -3 -3 -4 -4 -4 -5 -5 -5 -6 -6 -6 -7 -7 -7 -8 -8 -8 -8 -8 -8 -8 -8 -8 -8 -8 -8 -7 -7 -7 -7 -7 -7 -7 -6 -6 -6 -6 -5 -5 -5 -5 -4 -4 -3 -3 -2 -1 -0
6 5 5 6 6 6 6 7 8 8 8 8 8 8 7 7 7 6 7 7 7 8 9 10 11 10 8 3 -0 -1 -1 -1 -1 -2 -2 -3 -3 -3 -4 -4 -4 -4 -5 -5 -6 -6 -6 -6 -7 -7 -7 -8 -8 -8 -9 -9 -9 -9 -9 -9 -9 -9 -9 -8 -8 -8 -8 -8 -8 -8 -7 -7 -7 -7 -6 -6 -6 -6 -5 -5 -5 -4 -4 -3 -3 -2
5 4 4 5 6 6 5 6 7 7 7 7 8 8 7 7 6 6 7 7 7 8 8 9 10 9 6 1 -2 -1 -2 -2 -2 -2 -2 -3 -3 -3 -4 -4 -4 -5 -5 -6 -6 -6 -7 -7 -7 -8 -8 -8 -8 -9 -9 -9 -9 -9 -9 -9 -9 -9 -9 -9 -9 -9 -9 -8 -8 -8 -8 -8 -8 -7 -7 -7 -7 -6 -6 -6 -5 -5 -5 -5 -4 -3
6 5 4 4 4 5 5 5 5 5 5 6 7 7 7 7 6 6 7 7 7 7 8 9 9 8 6 1 -2 -2 -2 -2 -2 -3 -3 -3 -3 -3 -4 -4 -4 -5 -5 -6 -6 -6 -7 -7 -8 -8 -8 -8 -9 -9 -9 -10 -10 -10 -10 -10 -10 -10 -10 -10 -10 -9 -9 -9 -9 -9 -9 -8 -8 -8 -8 -8 -7 -7 -7 -7 -6 -6 -6 -5 -5 -4
5 4 3 4 4 5 4 4 5 5 5 6 7 7 6 5 5 6 6 6 6 6 6 8 6 2 1 -1 -3 -2 -2 -3 -3 -3 -3 -3 -4 -3 -4 -5 -5 -5 -6 -6 -6 -7 -7 -7 -8 -8 -9 -9 -9 -9 -10 -10 -10 -10 -10 -10 -10 -10 -10 -10 -10 -10 -10 -10 -9 -9 -9 -9 -9 -9 -9 -8 -8 -8 -8 -7 -7 -6 -6 -6 -5 -5
4 4 3 4 4 4 4 4 5 5 5 5 6 6 5 4 5 5 6 6 6 5 6 8 6 0 -1 -1 -2 -2 -3 -3 -3 -3 -3 -3 -4 -4 -5 -5 -5 -6 -6 -6 -7 -7 -7 -8 -8 -8 -9 -9 -9 -10 -10 -10 -10 -11 -11 -11 -11 -11 -11 -11 -11 -11 -11 -10 -10 -10 -10 -9 -9 -9 -9 -9 -8 -8 -8 -8 -7 -6 -6 -5 -5 -5
2 2 3 3 4 4 4 4 5 4 4 4 4 5 5 5 5 5 5 6 6 5 6 9 7 3 3 1 -3 -3 -2 -3 -3 -3 -3 -3 -4 -5 -5 -5 -6 -6 -6 -6 -7 -7 -7 -8 -8 -9 -9 -9 -10 -10 -10 -10 -11 -11 -11 -11 -11 -11 -12 -12 -11 -11 -11 -11 -11 -10 -10 -10 -10 -9 -9 -9 -9 -9 -8 -8 -7 -6 -6 -5 -5 -5
1 2 3 3 3 4 4 4 4 3 3 4 4 5 5 4 4 5 5 5 4 6 6 8 9 6 3 1 -3 -3 -2 -3 -3 -3 -3 -3 -4 -5 -5 -5 -6 -6 -6 -7 -7 -7 -8 -8 -8 -9 -9 -10 -10 -10 -11 -11 -11 -11 -12 -12 -12 -12 -12 -12 -12 -12 -12 -12 -11 -11 -11 -10 -10 -10 -10 -10 -9 -9 -8 -8 -7 -7 -7 -6 -5 -5
0 2 2 2 3 4 3 2 1 0 1 3 3 4 3 3 3 4 4 3 3 5 5 7 9 4 -1 -1 -1 -1 -2 -3 -3 -3 -3 -3 -4 -4 -5 -5 -6 -6 -7 -7 -7 -7 -8 -8 -9 -9 -9 -10 -10 -11 -11 -11 -11 -12 -12 -12 -13 -13 -13 -13 -13 -13 -12 -12 -12 -12 -11 -11 -11 -11 -10 -10 -10 -9 -9 -9 -8 -8 -7 -6 -6 -5
0 2 2 2 3 3 0 -1 -1 -1 -1 1 1 1 1 2 3 3 3 3 3 4 4 5 6 2 -2 -2 -1 -1 -1 -2 -2 -3 -4 -4 -5 -5 -5 -6 -6 -7 -7 -7 -8 -8 -8 -8 -9 -9 -10 -10 -11 -11 -11 -12 -12 -12 -13 -13 -13 -13 -13 -13 -13 -13 -13 -13 -12 -12 -12 -12 -11 -11 -11 -11 -10 -10 -10 -9 -9 -9 -8 -7 -6 -6
-1 -0 -0 1 1 0 -2 -2 -1 -1 -1 -1 -1 -1 -1 -0 1 2 3 2 1 2 2 2 3 1 -3 -3 -2 -1 -1 -1 -2 -3 -4 -4 -5 -5 -6 -6 -6 -7 -8 -8 -8 -8 -8 -9 -9 -10 -10 -11 -11 -12 -12 -12 -12 -12 -13 -13 -14 -14 -14 -14 -14 -14 -14 -13 -13 -13 -12 -12 -12 -12 -12 -11 -11 -11 -11 -10 -9 -9 -8 -7 -7 -7
-2 -2 -2 -0 -0 -2 -2 -2 -1 -1 -1 -1 -2 -2 -2 -2 -1 -0 1 -1 -2 -0 1 0 2 -1 -5 -4 -2 -1 -1 -2 -2 -3 -4 -4 -5 -6 -6 -7 -7 -7 -8 -8 -8 -8 -9 -9 -10 -10 -11 -11 -12 -12 -12 -13 -13 -13 -13 -14 -14 -14 -14 -15 -15 -15 -14 -14 -14 -13 -13 -13 -13 -12 -12 -12 -12 -12 -11 -11 -10 -9 -9 -8 -8 -7
-2 -2 -1 -0 -1 -2 -2 -2 -2 -2 -1 -2 -3 -3 -3 -3 -3 -3 -3 -3 -4 -1 -0 0 1 -1 -5 -4 -2 -2 -2 -2 -3 -3 -4 -4 -5 -6 -6 -7 -7 -8 -8 -8 -8 -8 -9 -10 -10 -11 -11 -12 -12 -13 -13 -13 -13 -14 -14 -14 -15 -15 -15 -15 -15 -15 -15 -15 -14 -14 -14 -13 -13 -13 -13 -13 -13 -12 -12 -12 -11 -10 -9 -9 -8 -8
-3 -2 -1 -1 -1 -2 -2 -2 -2 -2 -2 -3 -4 -4 -4 -4 -4 -4 -3 -3 -3 -2 -1 -0 0 -2 -4 -3 -2 -3 -2 -3 -3 -3 -4 -4 -5 -6 -6 -7 -7 -8 -8 -8 -9 -9 -9 -10 -11 -11 -12 -12 -13 -13 -14 -14 -14 -14 -14 -15 -15 -15 -16 -16 -16 -16 -15 -15 -15 -14 -14 -14 -14 -14 -14 -14 -14 -13 -13 -12 -12 -11 -10 -9 -9 -8
-3 -3 -3 -2 -1 -1 -1 -3 -4 -4 -4 -4 -4 -4 -4 -4 -4 -3 -3 -4 -3 -2 -2 -2 -1 -3 -5 -4 -3 -3 -3 -3 -4 -4 -4 -4 -4 -5 -6 -7 -7 -8 -9 -9 -9 -9 -10 -10 -11 -12 -12 -13 -13 -14 -15 -15 -15 -15 -15 -15 -16 -16 -16 -16 -16 -16 -16 -16 -15 -15 -15 -15 -15 -15 -15 -14 -14 -14 -14 -13 -13 -11 -10 -10 -10 -9
-4 -4 -6 -5 -3 -3 -4 -5 -5 -5 -5 -5 -4 -4 -4 -3 -4 -4 -4 -5 -4 -5 -5 -4 -3 -4 -5 -5 -4 -3 -3 -4 -4 -4 -4 -4 -5 -5 -6 -7 -8 -8 -9 -9 -10 -10 -10 -11 -11 -12 -13 -13 -14 -15 -15 -15 -15 -16 -16 -16 -16 -16 -17 -17 -17 -17 -17 -16 -16 -16 -15 -15 -15 -15 -15 -15 -15 -15 -15 -14 -14 -13 -12 -11 -11 -11
-4 -5 -7 -7 -6 -6 -7 -6 -6 -6 -6 -6 -5 -5 -5 -4 -4 -5 -5 -5 -5 -6 -6 -5 -5 -5 -5 -5 -4 -4 -4 -4 -4 -4 -4 -5 -5 -6 -7 -8 -9 -9 -10 -10 -10 -11 -11 -11 -12 -12 -13 -14 -15 -15 -16 -16 -16 -16 -16 -17 -17 -17 -17 -18 -17 -18 -17 -17 -17 -16 -16 -16 -16 -16 -16 -16 -16 -16 -15 -15 -15 -14 -13 -12 -12 -12
-5 -5 -7 -7 -6 -7 -7 -7 -7 -7 -7 -6 -6 -6 -6 -5 -5 -5 -5 -5 -5 -6 -6 -5 -5 -6 -5 -4 -4 -3 -3 -3 -3 -4 -4 -5 -6 -7 -8 -9 -9 -10 -10 -10 -11 -11 -12 -12 -12 -13 -14 -15 -15 -16 -16 -17 -17 -17 -17 -17 -17 -18 -18 -18 -18 -18 -18 -17 -17 -17 -17 -17 -17 -16 -16 -17 -16 -16 -16 -16 -16 -15 -14 -14 -14 -13
-6 -6 -8 -8 -7 -7 -7 -7 -7 -7 -7 -7 -7 -7 -7 -6 -6 -6 -6 -5 -5 -6 -6 -5 -6 -6 -5 -4 -4 -3 -3 -3 -3 -3 -4 -6 -7 -8 -9 -9 -9 -10 -10 -11 -11 -12 -12 -13 -13 -14 -15 -15 -16 -17 -17 -17 -17 -17 -18 -18 -18 -18 -19 -18 -19 -19 -18 -18 -18 -17 -17 -17 -17 -17 -17 -17 -17 -17 -17 -17 -16 -16 -16 -15 -15 -14
-6 -6 -7 -8 -7 -7 -8 -8 -7 -7 -7 -8 -8 -7 -7 -7 -7 -7 -7 -6 -6 -6 -6 -5 -6 -6 -4 -4 -4 -4 -4 -4 -4 -3 -4 -6 -7 -8 -9 -9 -9 -10 -10 -11 -12 -12 -12 -13 -14 -15 -15 -16 -17 -17 -18 -18 -18 -18 -18 -19 -19 -19 -19 -19 -19 -19 -19 -19 -18 -18 -18 -18 -18 -18 -18 -18 -18 -18 -18 -18 -17 -17 -17 -16 -16 -15
-6 -7 -7 -7 -7 -7 -9 -9 -7 -7 -8 -8 -8 -8 -8 -8 -7 -7 -7 -6 -6 -7 -6 -6 -7 -6 -4 -4 -5 -4 -4 -5 -5 -5 -5 -5 -6 -8 -8 -9 -9 -10 -10 -11 -12 -13 -13 -14 -14 -15 -16 -17 -17 -18 -18 -18 -19 -19 -19 -19 -19 -20 -20 -20 -20 -19 -19 -19 -19 -19 -18 -18 -18 -19 -19 -19 -19 -18 -18 -18 -18 -18 -17 -17 -17 -16
-8 -7 -6 -7 -6 -7 -9 -9 -9 -8 -8 -7 -6 -6 -7 -7 -7 -7 -6 -6 -5 -6 -6 -6 -6 -5 -4 -4 -5 -5 -5 -5 -5 -5 -6 -5 -6 -7 -8 -8 -9 -10 -11 -12 -13 -13 -14 -14 -15 -16 -17 -18 -18 -19 -19 -19 -19 -20 -20 -20 -20 -20 -20 -20 -20 -20 -20 -20 -19 -19 -19 -19 -19 -19 -19 -19 -19 -19 -19 -19 -19 -18 -18 -18 -17 -17
-8 -7 -6 -7 -7 -7 -8 -9 -9 -7 -5 -4 -5 -5 -5 -6 -6 -6 -6 -5 -5 -5 -5 -5 -5 -4 -4 -4 -5 -5 -6 -6 -7 -7 -7 -7 -7 -8 -8 -9 -10 -11 -12 -13 -13 -14 -15 -15 -16 -17 -17 -18 -19 -19 -20 -20 -20 -20 -20 -20 -21 -21 -21 -21 -21 -20 -20 -20 -20 -20 -19 -19 -20 -20 -20 -20 -20 -20 -20 -19 -19 -19 -19 -18 -18 -18
-8 -8 -7 -7 -7 -7 -8 -8 -7 -5 -3 -5 -6 -5 -4 -5 -5 -6 -6 -5 -5 -5 -5 -5 -5 -5 -5 -5 -6 -7 -7 -8 -8 -8 -8 -8 -8 -8 -9 -10 -11 -12 -13 -13 -14 -15 -16 -17 -17 -18 -19 -19 -19 -20 -20 -21 -21 -21 -21 -21 -21 -21 -21 -21 -21 -21 -21 -20 -20 -20 -20 -20 -21 -21 -21 -21 -21 -20 -20 -20 -20 -19 -19 -19 -19 -19
-8 -8 -7 -7 -8 -7 -8 -7 -5 -4 -5 -6 -5 -4 -5 -5 -5 -6 -7 -6 -6 -6 -6 -6 -6 -5 -5 -6 -7 -8 -8 -8 -9 -8 -8 -9 -9 -9 -9 -11 -12 -13 -14 -15 -16 -16 -17 -18 -18 -19 -20 -20 -20 -21 -21 -21 -21 -22 -22 -22 -22 -22 -22 -22 -22 -22 -21 -21 -21 -21 -21 -21 -21 -21 -21 -21 -21 -21 -21 -20 -20 -20 -20 -20 -20 -19
-7 -8 -8 -8 -7 -7 -8 -8 -6 -6 -6 -6 -6 -5 -5 -5 -6 -7 -8 -7 -6 -5 -6 -6 -6 -5 -5 -7 -8 -9 -9 -9 -8 -9 -10 -11 -12 -13 -13 -13 -14 -15 -15 -16 -17 -18 -18 -19 -20 -20 -20 -21 -21 -21 -22 -22 -22 -23 -23 -23 -23 -23 -22 -22 -22 -22 -22 -22 -22 -22 -22 -22 -22 -22 -22 -22 -22 -21 -21 -21 -21 -21 -21 -20 -20 -20
-7 -8 -8 -8 -7 -7 -8 -9 -8 -7 -6 -6 -7 -6 -6 -6 -6 -7 -8 -8 -7 -6 -6 -6 -6 -6 -6 -8 -9 -9 -9 -9 -9 -9 -12 -13 -14 -15 -16 -16 -16 -17 -17 -18 -18 -19 -20 -20 -21 -21 -21 -21 -22 -22 -23 -23 -23 -23 -24 -24 -24 -24 -23 -23 -23 -23 -23 -23 -23 -23 -23 -23 -23 -23 -23 -22 -22 -22 -22 -21 -21 -21 -21 -21 -21 -21
-8 -8 -9 -9 -8 -8 -9 -9 -9 -8 -6 -6 -7 -6 -6 -7 -7 -7 -9 -9 -8 -6 -6 -6 -7 -7 -7 -8 -9 -9 -10 -10 -9 -9 -12 -14 -14 -15 -17 -17 -17 -18 -18 -19 -19 -20 -20 -21 -21 -21 -21 -22 -22 -23 -23 -23 -24 -24 -25 -25 -24 -24 -24 -24 -24 -24 -24 -24 -23 -24 -24 -24 -24 -23 -23 -23 -23 -22 -22 -22 -22 -22 -22 -22 -22 -21
-10 -9 -9 -10 -10 -9 -9 -9 -9 -8 -7 -6 -6 -7 -7 -7 -7 -8 -9 -9 -8 -7 -7 -7 -7 -7 -7 -8 -9 -9 -10 -9 -9 -10 -13 -14 -15 -16 -17 -17 -18 -19 -19 -20 -20 -20 -21 -21 -21 -21 -21 -22 -22 -23 -24 -24 -25 -25 -25 -25 -25 -25 -25 -25 -25 -24 -24 -25 -25 -25 -25 -25 -24 -24 -24 -24 -23 -23 -23 -23 -23 -23 -23 -23 -22 -22
-11 -10 -10 -10 -10 -9 -9 -9 -9 -8 -6 -5 -6 -7 -7 -7 -8 -9 -9 -8 -7 -7 -7 -7 -7 -7 -7 -8 -9 -10 -10 -10 -11 -12 -15 -15 -16 -16 -17 -18 -18 -19 -19 -20 -20 -20 -21 -21 -22 -22 -22 -22 -23 -24 -24 -25 -25 -26 -25 -26 -26 -25 -25 -25 -25 -25 -25 -26 -26 -26 -25 -25 -25 -25 -25 -24 -24 -24 -24 -24 -23 -23 -23 -23 -23 -23
-10 -10 -10 -10 -10 -9 -9 -9 -10 -8 -6 -5 -6 -7 -7 -8 -9 -9 -8 -9 -8 -7 -7 -8 -8 -8 -8 -9 -9 -9 -11 -13 -14 -14 -15 -16 -16 -17 -18 -18 -19 -19 -20 -20 -20 -21 -22 -22 -22 -23 -23 -23 -24 -24 -24 -25 -26 -26 -26 -26 -25 -25 -25 -26 -26 -26 -26 -26 -26 -26 -26 -26 -26 -25 -25 -25 -25 -24 -24 -24 -24 -24 -24 -24 -23 -23
-9 -9 -9 -10 -10 -9 -10 -10 -9 -7 -6 -7 -8 -8 -8 -8 -8 -8 -8 -9 -9 -8 -8 -8 -8 -8 -9 -9 -10 -10 -12 -14 -14 -14 -15 -16 -17 -17 -18 -18 -19 -20 -20 -21 -21 -22 -22 -23 -23 -23 -23 -23 -24 -24 -25 -25 -26 -26 -26 -26 -25 -25 -26 -26 -26 -26 -26 -26 -26 -26 -26 -26 -26 -26 -26 -25 -25 -25 -25 -25 -24 -24 -24 -24 -24 -24
-8 -8 -8 -8 -8 -8 -10 -9 -7 -6 -7 -8 -7 -7 -8 -8 -8 -9 -8 -8 -9 -9 -9 -9 -9 -8 -9 -10 -10 -10 -12 -13 -14 -15 -15 -16 -16 -17 -18 -18 -19 -20 -20 -21 -21 -22 -23 -23 -24 -24 -24 -24 -24 -25 -25 -26 -26 -26 -26 -25 -25 -25 -26 -26 -26 -27 -27 -26 -26 -26 -26 -26 -26 -26 -25 -25 -25 -25 -25 -25 -25 -25 -24 -24 -24 -24
-7 -8 -8 -8 -7 -7 -8 -8 -7 -8 -9 -8 -7 -7 -8 -9 -10 -10 -9 -9 -10 -10 -9 -9 -10 -9 -10 -10 -10 -11 -12 -12 -13 -14 -15 -16 -17 -17 -18 -19 -19 -20 -20 -21 -22 -22 -23 -24 -24 -24 -24 -24 -24 -25 -25 -26 -26 -26 -26 -25 -25 -26 -27 -27 -27 -27 -27 -26 -26 -26 -26 -26 -26 -25 -25 -25 -25 -25 -25 -25 -25 -25 -24 -24 -24 -23
-8 -10 -9 -8 -8 -8 -7 -7 -8 -9 -9 -9 -8 -8 -9 -9 -10 -11 -11 -10 -11 -10 -10 -10 -11 -11 -11 -11 -11 -12 -12 -13 -13 -14 -15 -16 -17 -18 -18 -19 -19 -20 -21 -21 -22 -23 -23 -24 -25 -25 -25 -24 -25 -25 -26 -26 -26 -26 -26 -26 -26 -26 -27 -27 -27 -27 -27 -26 -26 -26 -26 -26 -26 -26 -25 -25 -25 -25 -25 -25 -25 -25 -24 -24 -24 -23
-10 -11 -10 -9 -9 -9 -7 -7 -8 -8 -8 -9 -9 -9 -9 -9 -10 -11 -11 -11 -11 -11 -11 -12 -13 -13 -13 -13 -13 -13 -14 -14 -14 -15 -16 -17 -18 -18 -19 -19 -20 -20 -21 -22 -22 -23 -24 -24 -25 -25 -26 -25 -25 -25 -26 -26 -26 -26 -26 -26 -26 -27 -27 -27 -28 -28 -27 -27 -27 -27 -27 -27 -26 -26 -26 -25 -25 -25 -25 -25 -25 -25 -24 -24 -24 -23
-9 -10 -10 -10 -10 -10 -8 -8 -9 -9 -9 -9 -9 -9 -9 -9 -10 -11 -12 -12 -12 -13 -14 -15 -15 -15 -15 -15 -15 -15 -15 -15 -15 -16 -17 -18 -19 -19 -19 -20 -20 -21 -22 -22 -23 -24 -24 -25 -25 -25 -26 -26 -25 -25 -26 -26 -26 -26 -26 -26 -27 -27 -27 -27 -28 -28 -27 -27 -27 -27 -27 -27 -26 -26 -26 -26 -25 -25 -25 -25 -25 -25 -24 -24 -24 -24
-10 -11 -10 -10 -10 -11 -10 -9 -9 -10 -10 -9 -10 -10 -10 -10 -10 -11 -12 -13 -14 -14 -15 -16 -16 -16 -16 -16 -16 -16 -16 -16 -17 -17 -18 -19 -19 -19 -20 -20 -21 -22 -22 -23 -24 -24 -25 -25 -25 -26 -26 -26 -26 -26 -26 -26 -26 -26 -26 -26 -27 -27 -28 -28 -28 -28 -28 -27 -27 -27 -27 -27 -26 -26 -26 -26 -26 -25 -25 -25 -25 -24 -24 -24 -23 -23
-11 -10 -10 -10 -10 -10 -9 -9 -9 -9 -8 -8 -9 -9 -10 -10 -10 -11 -13 -14 -14 -15 -15 -16 -17 -18 -18 -18 -18 -18 -18 -18 -18 -19 -19 -20 -20 -20 -21 -21 -22 -23 -23 -24 -24 -25 -25 -25 -26 -26 -26 -26 -26 -26 -26 -26 -25 -25 -26 -26 -27 -27 -28 -28 -28 -28 -28 -27 -27 -27 -27 -27 -27 -26 -26 -26 -26 -26 -25 -25 -25 -24 -24 -23 -23 -23
-10 -9 -10 -10 -9 -8 -8 -8 -8 -8 -8 -9 -9 -10 -11 -12 -12 -12 -13 -13 -14 -16 -17 -17 -17 -17 -19 -20 -19 -19 -20 -20 -19 -20 -20 -21 -21 -21 -22 -22 -23 -23 -24 -25 -25 -25 -26 -26 -26 -26 -26 -26 -26 -27 -27 -26 -26 -25 -26 -26 -27 -27 -28 -28 -28 -28 -28 -27 -27 -27 -27 -27 -27 -27 -26 -26 -26 -26 -25 -25 -25 -24 -24 -23 -23 -23
Height
773 779 779 778 776 770 768 767 766 763 761 764 767 769 767 763 762 762 763 759 757 764 766 765 764 770 784 788 788 791 792 795 800 804 809 812 815 818 820 821 823 825 826 827 827 826 826 824 824 822 821 819 817 815 813 811 809 807 806 803 801 800 797 795 792 790 789 788 787 786 786 788 789 788 786 784 783 784 787 788 785 783 784 784 784 786
772 780 776 770 767 763 762 761 762 763 763 765 768 771 771 766 766 766 765 762 761 766 766 763 761 770 784 790 791 795 798 802 804 808 812 815 819 821 823 824 826 827 828 829 829 828 828 827 826 825 823 822 819 818 816 814 814 812 810 807 805 803 800 798 797 795 794 793 792 791 791 793 793 790 788 787 786 787 788 789 787 786 786 786 785 785
778 779 771 764 762 760 760 760 762 764 765 769 770 772 774 769 766 769 767 764 764 767 767 763 764 778 791 794 798 803 807 812 811 813 816 819 823 825 827 829 828 830 831 831 831 831 830 830 828 827 826 825 824 822 821 819 817 815 813 811 809 807 804 801 800 798 797 796 796 795 794 794 794 793 792 791 790 790 790 790 790 788 786 785 784 784
779 775 769 764 763 762 763 762 765 767 768 772 773 775 775 769 767 770 771 769 767 768 772 769 771 787 800 801 806 810 812 816 818 818 821 822 826 829 830 832 832 833 834 834 835 834 833 833 831 830 829 829 828 826 824 822 820 819 817 814 812 811 808 805 803 801 800 799 797 796 796 795 795 794 794 793 791 791 791 791 790 787 786 786 785 785
774 772 770 767 766 766 767 768 768 772 776 774 773 776 774 770 769 771 774 774 771 771 773 774 775 784 797 803 808 815 815 818 821 822 825 826 828 832 833 834 836 836 837 837 837 837 836 835 834 834 833 832 830 829 828 827 825 823 821 818 816 814 811 809 806 804 802 800 798 796 795 794 794 793 792 791 791 791 791 791 789 788 788 788 787 787
773 773 772 771 771 770 773 775 770 773 780 776 772 774 772 769 770 775 776 776 778 778 772 775 779 777 787 801 808 815 816 817 822 824 828 831 831 834 836 837 839 839 840 841 840 841 839 839 838 837 836 835 833 833 832 831 829 827 825 822 819 817 814 812 809 807 805 803 801 799 798 798 798 798 797 797 798 796 794 793 792 791 790 790 789 789
775 775 775 776 777 776 777 777 774 776 780 778 776 776 772 767 770 776 777 779 783 780 770 772 779 775 783 803 811 814 817 819 825 828 831 833 835 837 839 840 842 842 843 843 843 843 843 842 841 840 839 838 837 837 835 834 832 830 828 826 823 820 818 815 813 810 808 807 806 805 805 806 806 805 805 805 804 802 800 798 796 794 793 792 791 791
781 779 780 780 780 781 782 782 783 784 781 781 782 778 774 772 773 775 776 780 779 776 774 770 774 775 778 799 812 812 818 823 827 832 835 836 838 840 842 843 845 846 846 846 846 846 846 845 845 844 843 842 841 840 838 836 834 832 830 829 826 823 821 819 817 814 812 811 811 810 810 809 809 809 809 807 805 804 803 800 798 796 795 794 792 792
789 788 788 786 783 784 787 789 790 788 785 786 786 781 777 778 778 777 777 782 778 780 785 774 775 782 778 798 817 811 815 824 827 834 837 838 841 841 844 846 847 848 848 848 849 849 849 848 848 848 847 846 844 842 840 839 837 835 833 831 828 826 824 822 820 818 816 815 814 813 813 812 812 812 811 809 807 805 803 800 799 797 796 795 794 794
792 793 792 790 792 793 794 793 790 790 788 787 788 784 781 780 780 781 781 783 783 789 792 776 775 784 780 798 817 812 814 818 823 836 840 841 844 844 846 848 849 851 851 851 852 851 852 851 851 850 849 848 846 845 843 841 839 837 835 833 830 828 827 826 823 821 819 818 817 816 815 815 814 813 812 810 808 806 804 802 800 798 797 797 796 795
794 793 792 795 801 798 795 791 786 789 789 785 787 786 787 784 781 785 783 784 792 795 788 773 772 781 782 797 816 821 822 817 822 839 844 845 847 847 849 851 852 853 853 854 854 854 854 854 853 852 851 850 848 847 845 843 842 839 838 835 834 832 830 829 827 824 823 821 820 819 819 818 817 816 814 812 810 808 806 804 803 802 800 799 798 797
795 795 797 800 802 798 795 791 787 790 789 788 789 789 794 791 786 794 789 790 803 796 779 770 770 776 780 798 824 834 833 826 829 840 845 847 849 850 852 853 854 856 856 857 856 857 857 855 855 854 853 852 850 849 847 845 844 842 841 839 837 836 833 832 830 828 827 825 824 823 822 821 821 820 818 817 816 813 811 809 807 806 803 802 800 799
801 805 805 802 801 801 800 794 788 790 789 791 791 792 801 799 800 810 803 801 802 787 776 772 770 775 788 816 837 840 840 837 837 842 845 849 851 852 855 855 857 858 858 859 859 859 859 858 858 856 855 855 852 851 850 848 847 845 844 842 840 839 837 836 834 832 831 829 828 827 826 825 824 823 822 821 820 818 816 814 812 809 807 805 803 801
803 809 808 805 804 804 805 801 798 799 797 795 792 795 803 802 806 809 798 797 795 783 781 777 773 778 796 831 847 841 845 846 843 847 848 850 852 853 856 856 858 860 859 861 861 861 862 861 861 860 859 858 856 855 853 851 850 848 846 844 842 842 840 839 837 835 834 833 832 831 829 829 827 826 826 824 823 822 820 818 816 814 812 809 808 806
802 807 813 814 812 809 808 810 810 811 808 801 794 796 801 801 806 801 790 797 798 789 786 779 780 786 796 830 851 845 848 849 848 852 851 852 855 854 857 858 859 862 862 863 863 863 864 863 863 863 861 861 859 858 856 854 853 851 849 847 846 844 842 840 839 838 837 836 835 834 832 831 830 829 829 827 826 825 822 821 819 817 815 813 811 809
803 810 819 816 814 813 813 812 811 812 810 802 795 797 803 807 811 804 797 803 802 799 797 784 795 819 827 843 852 846 850 852 850 854 852 854 857 856 860 861 861 864 864 865 865 865 866 866 865 865 864 863 862 861 859 857 856 854 853 851 849 848 846 844 842 840 839 838 837 836 835 834 833 832 831 829 828 827 825 823 821 819 818 816 814 812
810 816 822 817 815 815 815 814 812 813 811 805 803 804 809 813 813 810 802 796 798 806 800 779 795 833 841 841 849 848 851 854 852 854 854 856 858 860 862 863 865 866 866 867 867 867 868 867 867 867 866 865 864 863 862 860 859 857 856 854 852 851 849 847 846 844 842 841 839 838 837 836 835 834 833 831 830 828 826 824 823 821 819 817 815 814
826 824 821 819 818 814 815 815 812 815 814 813 814 811 811 810 808 811 807 800 804 804 790 771 781 810 816 825 851 855 849 854 854 854 857 857 860 863 864 866 867 867 868 869 869 869 869 869 869 868 867 867 866 865 864 863 862 860 858 857 855 853 852 850 848 847 845 843 842 841 839 838 837 836 834 833 832 830 827 825 824 822 820 819 817 815
835 829 822 822 821 815 816 816 816 821 818 818 820 814 813 817 814 812 808 811 814 801 789 774 767 791 815 830 851 853 846 854 855 854 857 858 860 863 865 867 868 868 870 869 870 871 870 870 870 869 869 868 867 866 866 864 863 862 860 859 857 855 854 852 850 849 847 846 844 843 842 840 838 837 835 834 832 830 828 826 825 823 822 820 818 816
836 829 826 825 820 816 822 829 835 839 830 822 823 820 823 825 822 819 815 819 820 806 799 784 769 802 841 842 842 844 844 852 853 854 859 858 861 864 864 867 868 869 871 870 871 872 871 872 871 871 870 869 869 867 866 865 864 863 861 860 858 857 855 853 852 850 848 847 846 845 843 842 840 838 836 834 833 831 829 828 826 825 823 821 820 818
837 829 831 827 819 822 837 847 850 852 845 836 836 838 840 834 826 826 821 819 821 813 810 799 787 819 853 847 840 841 843 850 851 854 860 861 863 865 865 868 869 870 872 871 872 872 872 873 872 872 872 870 870 869 867 866 864 864 863 860 860 858 856 855 853 851 850 848 847 846 844 843 841 840 838 836 835 833 831 830 828 826 825 823 821 820
847 842 842 836 832 841 855 856 851 852 851 849 850 851 853 847 838 834 824 826 836 829 825 822 811 828 854 851 845 842 841 847 850 853 860 862 864 867 867 870 870 871 873 872 873 873 873 874 873 873 873 871 871 869 868 867 865 865 863 862 861 859 858 856 854 853 852 850 849 847 846 845 843 841 839 838 837 835 833 831 829 828 826 824 823 821
854 854 851 844 845 852 856 854 853 854 852 853 858 858 858 858 855 850 842 849 859 845 838 840 827 837 861 856 847 845 845 848 851 854 860 861 865 868 869 871 872 872 874 873 874 874 874 875 874 874 874 872 872 871 869 869 867 866 865 863 862 860 859 858 856 855 853 851 850 848 847 846 844 842 840 838 837 836 834 833 831 829 827 825 824 822
855 855 850 844 850 858 858 855 855 855 853 857 864 864 866 867 868 869 865 869 872 853 844 843 829 840 863 857 848 851 850 852 855 856 860 862 865 868 868 871 872 872 874 874 874 875 875 875 875 875 874 874 873 872 871 870 869 867 866 865 863 862 861 859 857 856 854 852 851 849 848 846 844 843 841 839 838 836 835 834 831 830 828 826 825 823
857 855 851 845 849 856 858 857 858 858 860 864 868 870 871 871 871 872 870 872 870 853 847 845 834 846 863 856 852 855 853 855 858 858 861 863 865 867 869 870 871 872 874 874 875 875 875 876 876 876 876 875 874 874 872 872 870 869 868 866 864 863 861 860 858 856 854 853 851 850 849 847 845 843 842 840 839 837 835 834 832 831 829 827 825 823
861 860 860 852 845 843 847 858 868 870 870 869 870 871 872 871 871 870 870 872 869 858 854 850 842 854 866 860 856 858 856 858 860 859 862 862 863 867 868 870 872 873 874 875 875 876 876 877 877 877 877 876 876 875 874 873 872 870 869 868 866 864 862 861 859 857 855 853 852 850 849 847 846 844 842 841 839 837 836 834 832 831 829 827 825 823
863 867 875 872 861 859 866 874 878 878 878 876 873 872 871 869 870 873 876 877 874 872 871 861 855 862 867 863 861 859 858 859 860 861 862 862 863 866 867 870 872 873 874 875 876 876 877 877 877 878 878 877 877 876 875 874 873 871 870 868 867 866 864 862 860 858 856 854 853 851 850 848 846 845 843 842 840 838 836 834 832 830 828 827 825 823
864 870 883 883 878 882 885 884 883 883 884 882 878 877 875 871 871 876 879 876 875 879 873 864 865 869 866 864 863 860 859 859 858 859 860 860 863 865 867 870 872 874 875 875 876 877 877 878 878 878 878 878 878 877 875 875 873 872 871 869 868 866 864 863 861 858 857 855 854 852 851 849 847 845 844 842 840 838 836 834 832 830 828 827 825 824
868 872 885 886 882 885 886 884 886 887 885 883 881 880 879 877 876 878 877 874 875 878 871 864 868 870 865 863 860 857 857 856 855 856 857 860 863 866 869 872 873 875 876 876 877 878 878 879 879 879 879 878 878 877 876 875 874 872 871 870 868 867 865 863 861 859 858 856 855 853 851 850 848 846 844 842 840 838 836 834 832 830 828 826 825 823
873 876 888 889 883 884 886 885 887 888 886 884 883 882 882 881 879 878 877 874 872 873 870 868 868 866 861 859 857 855 854 853 851 851 854 860 865 868 871 872 873 875 876 877 878 878 879 880 879 879 880 879 878 878 876 875 874 873 871 870 868 867 865 863 862 860 859 857 855 854 852 850 848 846 844 842 840 839 836 834 832 830 828 826 825 823
875 878 885 887 885 885 890 890 886 885 886 886 885 883 882 883 882 881 879 876 875 873 869 868 868 864 858 856 856 855 854 854 853 852 854 860 864 868 871 872 872 874 875 877 878 879 879 879 880 880 880 880 879 878 877 876 875 874 872 870 869 867 865 864 862 860 859 857 856 854 852 850 848 846 844 842 840 838 836 834 832 830 828 826 824 822
879 881 883 886 883 885 895 896 887 887 891 890 887 883 882 883 881 878 876 873 873 874 870 870 870 863 856 855 856 856 855 856 857 857 858 859 862 867 870 870 872 873 875 877 878 879 880 880 880 880 880 880 880 879 878 877 875 874 873 871 870 868 866 864 862 861 859 858 856 854 852 850 848 846 844 842 840 838 836 833 831 829 827 825 824 821
886 883 882 883 880 884 896 898 893 892 883 873 871 869 871 876 874 872 871 867 865 867 868 869 865 858 854 855 856 855 856 857 857 858 859 859 860 865 867 868 870 872 874 877 878 879 880 880 880 880 880 880 879 879 878 877 876 875 873 872 870 868 867 865 863 861 859 858 856 854 853 851 848 846 844 842 840 837 835 833 830 829 827 824 823 821
889 885 881 881 882 884 891 897 894 878 856 851 859 858 857 863 866 866 866 862 860 860 860 859 857 854 854 854 855 856 857 859 860 861 861 861 861 864 866 868 870 873 875 877 878 879 880 880 880 881 880 880 879 879 878 877 876 875 873 872 870 868 867 865 864 862 860 858 857 855 853 851 849 846 844 842 840 837 835 833 831 829 827 825 822 820
889 888 883 884 886 884 887 890 875 852 845 856 863 857 854 857 860 863 864 861 861 860 858 858 857 855 854 854 856 859 860 861 863 863 863 863 863 864 866 869 871 873 875 877 878 879 880 880 880 880 879 879 878 878 877 876 875 874 872 872 870 868 867 865 864 863 861 859 857 855 854 851 849 847 844 842 840 838 836 834 831 829 828 825 823 820
889 888 884 886 886 882 884 880 857 843 853 863 858 854 857 858 859 865 867 862 859 859 858 857 856 853 853 856 860 862 862 863 864 863 863 864 864 865 867 869 871 873 875 877 878 879 879 879 879 879 879 878 877 876 876 875 874 873 872 871 869 868 867 865 864 862 861 859 858 856 854 852 850 847 845 843 841 838 836 834 832 830 828 825 823 820
886 888 888 887 883 880 882 879 867 860 861 861 857 856 857 858 861 867 870 864 857 855 856 855 854 852 854 859 863 863 863 864 863 863 864 866 867 868 869 870 872 874 875 877 877 878 878 878 878 878 877 877 876 875 875 874 873 872 870 870 869 867 866 865 864 862 861 859 858 856 855 853 850 848 846 844 841 839 837 835 832 830 828 825 822 819
885 888 890 886 881 882 885 882 875 864 856 858 863 860 858 861 862 865 871 867 857 853 853 853 854 854 854 860 863 863 864 865 863 864 868 869 869 870 871 872 873 874 875 877 877 877 878 877 877 877 876 875 875 874 873 873 872 870 869 868 867 866 865 864 863 862 860 859 857 856 854 852 851 848 846 844 842 840 838 835 833 831 829 826 823 819
890 890 893 891 887 887 886 881 875 865 856 857 861 860 861 863 863 866 870 865 856 853 852 852 855 855 855 859 862 863 866 866 862 862 868 870 870 871 872 873 874 875 875 876 876 876 876 875 875 875 874 874 873 873 872 871 870 869 868 867 866 865 864 863 862 861 860 858 857 855 853 851 850 848 846 844 842 840 837 835 833 831 829 827 823 820
896 893 894 894 891 889 887 882 877 869 860 856 858 861 863 862 865 867 861 855 856 856 853 854 856 855 856 859 862 864 865 864 861 862 866 869 870 871 872 872 873 874 874 874 875 875 874 874 873 873 873 872 872 871 871 870 869 868 867 866 865 864 863 862 861 860 858 857 855 853 852 851 849 847 846 843 841 839 837 835 832 830 827 825 822 819
899 897 894 892 890 889 885 880 876 869 857 852 856 861 861 863 869 866 855 852 857 856 854 856 856 856 857 859 862 863 863 862 863 864 867 869 869 871 871 871 872 873 873 873 873 873 873 872 872 872 871 871 870 870 869 868 867 866 865 865 863 862 861 861 859 858 857 855 853 852 850 849 847 846 844 842 840 838 835 834 831 829 826 824 821 818
892 892 891 890 889 887 883 880 877 866 852 848 855 860 862 865 865 859 855 858 858 854 854 857 856 857 858 859 860 861 862 865 866 866 867 868 869 870 870 870 871 871 872 872 872 872 872 871 870 870 869 869 869 868 868 867 866 865 864 863 861 860 860 859 857 856 855 853 851 850 848 847 846 844 842 840 838 836 833 832 830 827 825 822 819 816
882 883 883 885 885 884 885 881 868 853 847 851 856 861 863 862 857 853 855 858 857 855 856 856 856 857 858 858 860 860 862 865 866 866 867 867 867 868 869 869 870 870 870 871 870 870 870 869 869 869 868 868 867 866 866 865 864 863 863 861 860 859 858 857 855 854 852 850 849 847 846 845 843 842 840 838 836 834 831 829 827 825 823 821 817 814
873 871 871 873 872 872 875 869 851 843 848 853 851 852 855 854 852 853 854 854 855 856 856 856 856 856 856 858 859 859 861 863 864 865 866 866 866 867 867 867 868 868 869 869 869 869 869 868 868 867 866 866 865 865 865 864 862 862 860 859 858 857 856 855 853 852 850 848 846 845 844 842 840 839 837 835 833 832 829 826 825 822 820 818 816 812
863 865 865 865 862 859 859 855 849 849 853 851 847 848 851 851 853 855 854 854 856 856 856 856 856 856 857 858 858 858 859 860 861 863 863 864 865 865 865 866 867 867 867 868 867 868 867 866 866 866 864 864 863 863 863 862 861 860 858 857 856 856 854 853 851 850 848 846 844 843 841 840 838 836 834 833 831 829 826 824 822 820 818 816 814 811
864 870 869 865 863 858 850 845 847 851 851 850 849 850 850 851 853 855 854 855 855 855 855 856 856 856 857 857 857 858 858 859 860 861 861 862 863 863 864 865 865 866 866 866 866 866 866 865 865 864 863 862 861 861 861 860 859 858 856 855 855 854 852 851 849 848 846 844 842 841 839 837 835 833 832 830 829 827 825 823 820 817 815 813 811 808
868 871 869 866 866 861 848 841 844 847 847 848 849 848 849 851 851 853 854 854 854 854 855 855 856 857 857 858 858 858 858 858 859 860 860 861 862 862 863 863 864 864 864 864 865 864 864 864 863 862 861 860 859 859 859 857 857 856 854 854 853 852 851 849 847 846 844 842 840 839 837 835 833 831 829 828 826 825 822 821 819 816 813 811 808 805
863 868 868 866 866 862 850 843 846 848 847 847 848 847 848 849 849 850 852 852 852 854 854 855 856 856 856 857 857 857 857 858 858 858 859 860 860 861 862 862 862 863 862 863 863 863 862 862 861 860 860 858 857 857 856 855 854 853 852 852 851 850 848 847 845 844 842 840 839 837 835 834 831 829 827 825 824 822 820 818 816 813 810 808 806 803
865 867 864 861 864 862 852 845 846 847 845 844 844 845 846 846 847 849 850 851 852 853 853 854 855 855 855 856 856 856 857 856 857 857 858 858 859 860 860 860 861 861 861 861 861 861 860 860 859 858 857 856 855 855 853 852 852 851 850 850 848 848 846 844 844 842 840 838 837 835 833 832 830 828 825 823 820 819 817 815 814 811 807 805 804 802
865 861 858 860 861 856 846 840 840 841 839 838 839 841 843 844 845 847 849 851 851 851 852 853 853 853 854 854 854 855 855 855 856 856 856 857 858 858 858 859 859 859 859 859 859 859 859 858 857 857 855 853 853 852 851 850 849 848 848 847 846 845 844 843 842 840 838 837 835 833 831 830 828 826 824 821 818 815 813 811 810 809 805 801 800 798
853 848 849 853 849 840 835 834 836 837 837 837 839 841 842 843 845 846 847 848 848 849 850 851 851 852 852 852 853 853 853 853 854 855 855 855 856 856 857 857 857 857 857 857 857 856 856 855 855 854 852 851 851 850 849 848 847 846 846 845 844 843 842 841 840 838 836 835 833 831 830 828 826 824 821 819 817 814 810 807 805 804 802 799 796 794
Wind_Speed
3 3 3 3 4 6 8 10 9 9 7 5 4 4 5 3 2 2 4 3 4 4 5 7 7 6 9 7 6 6 7 9 8 8 7 7 7 7 7 8 8 8 9 13 17 19 21 23 23 22 22 24 25 29 32 34 34 34 34 33 32 33 32 30 28 25 23 22 19 20 21 20 21 23 24 26 28 27 27 27 26 25 23 21 18 16
1 3 5 5 7 9 8 8 8 9 8 6 4 4 5 5 2 3 3 2 1 1 3 7 7 5 8 7 6 6 7 7 6 7 8 7 8 6 7 8 8 7 8 12 16 19 21 23 24 23 23 26 26 27 30 32 32 32 33 35 34 33 33 32 31 27 25 24 21 17 15 14 17 22 24 26 28 27 27 27 27 26 24 23 22 20
1 5 6 6 6 6 3 2 2 4 5 4 3 3 4 4 1 2 2 1 1 1 2 5 3 4 7 6 6 7 7 6 7 8 8 8 8 7 7 8 7 8 8 10 13 17 20 22 23 24 24 25 25 25 28 30 31 32 33 33 34 34 34 33 32 28 25 23 20 17 14 13 15 20 22 24 26 26 26 27 27 27 27 25 25 24
2 2 3 3 4 2 2 3 4 4 3 2 3 3 4 4 3 2 1 1 2 1 0 4 2 4 5 5 6 6 6 7 7 9 9 8 8 8 8 7 7 8 9 9 11 14 18 21 23 24 24 24 25 26 28 30 31 31 32 32 32 34 35 34 32 30 27 23 20 18 17 15 14 17 18 19 23 26 26 26 27 28 28 27 25 24
2 2 4 4 5 4 3 4 3 2 2 3 5 5 5 5 2 1 2 2 4 3 1 2 3 2 5 5 5 5 6 7 7 8 9 8 8 8 8 8 8 9 8 9 9 12 16 19 21 23 24 24 25 27 27 28 29 29 31 31 31 32 35 35 33 31 30 27 24 21 20 18 17 19 21 22 26 29 28 27 28 27 26 26 25 24
4 3 4 4 4 4 3 3 3 2 3 3 4 4 6 8 2 5 4 2 2 3 2 3 2 3 5 6 5 5 6 7 6 7 8 7 7 7 7 8 8 8 8 9 10 12 15 18 20 22 24 25 25 26 26 26 27 28 29 31 32 32 34 36 34 32 31 32 31 28 25 23 22 23 26 26 27 29 28 27 26 25 25 24 24 23
2 4 3 3 3 4 1 2 3 1 3 2 2 5 4 6 5 7 5 1 1 3 2 6 5 3 2 4 4 5 5 6 7 7 7 6 7 7 7 7 7 7 7 8 10 13 15 17 19 21 23 24 24 25 25 25 27 28 29 31 32 33 34 35 35 34 33 32 32 31 26 23 21 21 22 24 24 24 25 25 25 25 25 24 24 24
3 5 4 3 1 0 0 1 5 6 3 1 4 7 7 4 0 3 4 3 2 2 2 4 5 4 3 2 4 6 6 5 6 6 6 6 7 8 8 7 8 8 7 7 8 11 15 17 19 20 22 23 23 24 25 26 27 28 29 30 31 33 34 36 36 36 35 31 30 29 27 25 23 21 21 24 25 25 24 25 25 25 25 25 25 25
3 5 5 4 1 1 1 1 4 6 2 1 5 7 5 4 4 3 0 2 3 3 3 5 5 4 3 2 3 4 5 4 5 6 6 7 7 7 8 8 8 8 8 8 8 11 15 17 19 19 20 22 23 25 25 25 27 28 29 30 32 33 34 36 37 37 37 34 32 31 28 26 26 24 24 27 30 29 28 28 27 26 26 26 25 26
2 4 4 4 3 1 3 4 3 4 1 1 6 7 4 2 2 3 1 2 2 4 7 6 6 4 3 2 2 3 1 3 5 7 6 7 7 7 8 8 7 7 7 8 10 13 16 17 18 19 20 22 24 24 25 25 26 29 30 31 33 34 33 35 37 38 38 37 36 35 32 28 27 28 29 31 34 34 33 32 32 30 28 27 26 26
1 1 3 4 4 3 4 5 3 1 2 2 3 3 3 3 1 1 1 1 2 6 9 7 7 5 3 1 2 2 4 3 5 8 6 7 8 8 8 7 7 7 6 7 10 13 16 17 18 20 20 22 24 25 26 27 27 28 30 31 32 34 33 34 35 37 38 38 37 36 34 31 29 29 29 31 34 35 34 33 33 32 31 29 28 27
2 2 2 3 4 4 4 4 1 1 1 1 1 1 2 2 2 0 1 2 3 7 6 6 8 7 5 1 4 4 7 8 6 8 8 9 9 8 8 8 7 7 7 7 8 11 14 16 18 20 21 22 24 26 27 28 28 28 30 31 31 33 34 33 34 35 36 37 37 36 35 33 31 31 29 28 30 31 31 31 31 32 32 32 31 30
2 3 3 1 4 7 6 3 1 2 1 1 2 1 1 1 1 1 2 3 5 6 2 4 9 6 3 2 6 7 8 9 8 8 8 9 9 8 8 8 7 6 7 7 7 8 12 15 17 19 20 21 24 26 26 27 27 27 29 30 31 32 33 32 32 33 34 35 35 35 35 32 31 32 31 29 30 29 28 29 31 31 31 32 32 32
1 2 5 4 2 6 6 2 1 2 2 1 1 1 1 2 1 3 4 3 4 4 1 3 7 4 1 4 6 7 7 8 8 8 8 8 8 8 9 8 8 7 7 7 6 8 11 14 16 17 18 20 21 23 24 26 26 27 28 30 31 31 32 32 32 32 33 32 32 33 33 32 30 31 31 30 31 31 30 29 29 30 30 31 31 31
1 0 4 4 3 4 5 4 2 2 3 3 1 1 0 1 1 2 2 1 1 2 1 3 3 2 0 2 4 6 7 7 7 7 7 8 8 8 8 8 8 8 7 6 7 9 12 14 15 16 17 18 20 21 23 24 26 26 27 29 30 31 32 32 32 32 31 30 30 31 32 32 30 29 30 29 30 32 32 31 30 31 32 32 31 31
1 2 1 2 2 4 4 3 3 3 3 3 2 0 1 2 1 2 1 1 1 2 2 2 1 2 2 4 4 5 6 6 6 7 7 8 8 8 8 8 8 8 7 7 6 8 12 14 15 16 17 18 18 20 22 23 25 25 26 27 28 28 30 31 31 31 30 29 29 31 31 31 31 31 30 30 31 33 33 33 32 33 33 32 32 31
1 1 1 0 2 5 4 2 4 3 1 2 2 1 2 1 1 2 4 2 1 1 2 3 2 2 3 3 3 5 6 6 6 7 8 8 8 8 7 7 7 7 7 7 6 8 11 13 15 16 16 18 18 19 20 21 23 23 24 25 26 27 29 30 30 29 29 29 29 30 31 30 31 32 31 29 30 33 35 35 34 34 34 34 33 32
1 0 2 1 2 4 3 2 3 6 4 1 1 3 3 2 1 1 3 0 1 4 3 4 5 3 3 1 1 3 5 6 6 7 8 8 8 8 7 6 6 6 6 6 7 9 12 13 14 15 16 17 18 18 19 19 20 22 23 24 25 26 28 28 28 28 29 29 28 29 30 30 30 30 30 29 28 32 35 36 36 35 35 35 34 33
2 0 1 3 1 3 4 2 1 6 8 3 1 4 3 1 1 1 1 1 3 5 3 4 6 2 2 1 1 4 6 7 6 6 7 7 8 7 7 6 6 5 5 5 6 8 10 12 13 15 15 16 17 18 19 18 19 21 22 23 24 24 26 27 27 27 28 28 27 28 28 29 30 29 30 29 28 31 35 36 36 36 35 35 35 34
2 1 1 3 4 1 3 4 2 4 8 6 4 4 3 1 1 1 0 1 1 3 3 4 4 0 3 2 2 3 8 7 6 6 5 7 7 6 6 6 5 5 5 5 5 6 9 12 13 14 15 15 16 18 18 18 19 21 22 24 24 25 28 29 28 28 29 27 26 27 27 28 29 29 30 29 28 30 33 34 35 35 35 35 35 34
3 1 2 2 5 2 2 4 3 3 5 5 4 4 4 3 1 1 1 0 1 2 3 3 3 0 1 3 4 3 8 7 5 6 5 5 6 5 5 5 4 5 5 5 5 6 9 11 12 13 14 14 15 17 18 18 18 19 21 23 24 25 28 30 29 29 30 27 26 27 26 27 28 28 29 29 28 29 31 32 33 33 33 34 34 34
3 2 1 3 4 3 3 2 3 4 4 4 3 3 3 3 2 2 2 1 3 2 1 2 3 1 1 3 4 3 6 5 6 7 6 5 6 5 5 5 5 5 5 4 5 7 9 10 11 12 13 14 15 17 18 18 18 19 20 21 24 24 26 28 28 29 30 27 26 26 25 25 27 28 28 28 27 29 30 31 32 32 33 34 33 33
2 1 1 1 3 4 4 2 3 4 4 5 5 4 3 3 3 1 2 1 3 2 1 0 3 1 1 4 4 5 5 5 7 7 6 5 6 5 5 5 5 4 4 5 6 7 8 9 10 11 13 14 15 16 18 18 18 19 19 20 23 23 25 27 26 28 30 26 25 25 24 25 26 27 29 29 28 29 29 29 31 32 33 33 33 33
2 0 1 1 3 4 4 2 2 3 2 5 5 5 4 3 2 2 2 1 1 3 1 1 3 1 2 4 2 5 6 6 6 6 6 5 5 5 5 5 4 4 4 5 6 7 8 9 10 11 12 13 14 15 17 17 17 18 18 20 22 22 24 26 25 29 30 26 26 25 23 26 28 29 31 30 31 31 29 29 30 31 32 32 32 32
1 1 1 1 1 1 1 1 2 2 2 3 2 2 4 4 2 1 1 1 1 3 3 3 3 1 0 3 2 3 3 4 4 4 5 4 4 4 4 4 4 4 4 4 5 6 8 9 10 11 11 13 13 14 17 16 16 18 17 19 22 21 23 25 25 28 29 27 26 24 22 24 28 29 29 29 32 32 30 30 30 31 33 32 31 32
1 2 2 1 2 2 1 2 0 2 3 1 1 1 2 3 1 0 1 1 1 1 1 3 3 1 2 4 1 2 2 3 4 4 3 3 4 5 4 4 4 4 4 4 4 5 7 8 9 10 11 12 13 14 16 16 16 17 16 18 20 19 23 25 24 27 28 25 24 23 22 23 26 27 26 27 31 31 31 33 33 33 34 32 31 31
1 2 3 3 3 1 2 2 1 2 2 2 3 3 3 1 2 3 2 1 2 2 4 3 1 3 2 2 1 2 2 3 4 4 4 3 4 5 4 4 4 4 4 3 3 4 6 7 9 9 10 12 12 14 15 15 16 16 16 19 19 19 23 24 24 27 27 23 21 22 21 23 25 25 24 26 29 28 30 34 34 34 35 34 33 31
1 2 3 2 3 3 2 1 2 2 1 4 4 5 4 4 2 2 3 4 0 3 5 3 3 5 2 1 3 4 4 5 5 6 6 6 5 5 5 5 5 4 3 3 3 4 5 6 8 9 10 11 12 14 15 15 16 15 16 19 18 19 24 23 24 28 26 21 22 21 21 23 23 22 23 26 27 26 28 32 34 34 35 35 34 31
2 0 2 1 2 1 1 1 1 1 2 4 5 6 5 5 5 4 6 6 3 4 7 5 7 10 7 6 7 6 6 7 7 7 7 5 5 5 5 5 4 3 3 3 3 4 4 6 7 8 10 11 12 14 16 16 16 15 18 19 18 21 24 22 25 26 22 21 22 21 21 23 22 21 23 25 24 24 26 30 32 34 35 35 34 34
1 2 1 1 1 3 3 1 1 2 4 6 6 6 6 6 8 8 7 7 8 9 10 10 13 13 9 8 8 6 4 5 5 5 6 7 6 5 5 4 4 4 3 3 3 3 4 5 7 8 9 10 12 14 16 17 16 17 20 20 20 23 24 24 26 24 20 21 22 20 22 23 21 22 23 23 23 23 25 28 29 31 34 33 33 35
2 3 2 1 0 2 3 3 3 3 4 7 8 8 8 7 8 9 9 8 8 10 11 11 13 12 6 3 3 4 4 4 5 3 4 6 6 5 5 4 4 4 4 3 3 3 4 5 6 7 8 10 11 13 15 16 16 18 20 19 20 23 24 25 25 22 21 22 21 21 23 22 21 24 25 24 24 23 24 25 25 27 29 29 31 34
3 2 1 1 1 2 2 3 3 4 5 8 11 11 10 9 7 7 6 6 7 8 9 9 9 7 2 2 1 3 3 3 3 2 1 3 6 6 5 5 4 4 4 4 3 3 4 5 5 6 7 8 11 14 15 14 16 18 18 17 19 22 23 24 23 22 22 22 21 22 22 21 22 25 25 26 26 26 27 27 26 26 26 26 28 30
2 1 1 2 1 2 2 3 4 4 5 5 7 8 8 9 8 7 6 7 8 8 6 6 6 4 1 0 3 3 1 2 2 0 1 2 4 6 5 4 4 4 4 4 3 3 3 4 5 6 6 8 10 13 13 13 16 16 15 17 19 21 21 21 21 21 21 21 21 22 21 21 23 25 26 27 28 30 30 29 28 27 26 26 27 26
1 1 1 2 1 1 4 5 2 3 3 3 3 2 2 4 5 6 6 6 7 6 6 6 6 5 5 5 4 2 2 1 0 2 3 3 3 5 4 4 5 5 5 4 4 4 3 4 4 4 6 8 10 11 12 13 14 13 14 17 19 19 19 20 19 19 20 20 20 20 20 21 23 25 26 28 29 30 28 27 28 28 27 27 28 28
2 1 1 1 1 1 3 1 3 2 3 3 3 3 1 2 1 4 6 7 9 9 9 10 9 8 8 5 1 3 3 2 3 3 2 3 3 3 5 5 5 5 4 3 4 4 3 3 3 4 6 8 10 11 13 13 12 13 15 16 17 17 18 18 18 18 18 19 19 19 20 22 23 25 26 28 28 27 26 26 27 27 27 28 29 30
1 0 1 1 1 0 1 1 1 4 5 3 5 5 3 2 2 3 5 7 8 8 8 8 8 8 5 2 4 4 2 1 0 1 3 3 3 3 3 5 5 5 5 5 4 4 2 2 2 5 7 9 11 12 12 12 11 13 14 14 16 16 16 16 16 17 17 17 18 18 19 21 23 25 25 26 25 25 26 27 26 27 29 31 31 31
1 0 1 0 2 1 0 3 3 5 7 4 1 1 1 1 1 1 2 5 5 6 7 6 7 7 2 4 5 2 1 1 2 2 1 4 5 6 6 7 7 7 7 6 4 3 0 2 4 6 8 9 11 13 12 12 11 12 14 15 16 15 15 15 16 16 16 17 17 17 19 21 23 24 24 24 24 25 25 25 27 30 30 31 32 34
1 1 1 1 1 3 2 2 3 4 4 2 2 3 4 4 4 4 2 4 5 7 9 7 6 5 0 4 4 2 2 2 2 2 2 4 5 7 7 8 8 7 7 5 3 2 3 5 6 8 9 10 12 13 11 11 13 14 15 16 15 14 14 15 15 16 16 16 16 19 22 23 22 21 22 23 23 23 24 25 27 29 29 30 33 37
3 2 1 1 1 1 2 1 2 3 4 3 5 5 5 5 4 4 4 5 4 3 2 1 1 1 3 4 4 4 2 1 3 3 3 3 4 6 7 7 7 6 5 4 3 3 5 6 8 9 11 13 13 12 11 13 14 15 15 16 15 15 15 16 16 15 15 16 19 22 24 22 20 20 21 22 22 23 24 25 26 28 30 31 32 33
3 2 1 2 3 3 3 3 3 4 5 2 6 6 5 5 6 5 3 5 3 1 2 3 2 1 3 4 4 3 3 4 3 2 4 6 6 7 7 8 8 7 6 4 4 5 6 8 10 12 13 14 13 13 13 14 13 13 15 16 16 17 17 17 16 15 17 20 22 23 22 21 21 21 21 22 23 24 25 26 27 29 30 29 29 29
1 1 2 3 4 4 5 4 3 4 5 4 7 7 6 5 6 2 4 4 1 1 1 2 1 1 3 5 4 3 3 2 1 3 6 7 6 6 7 7 7 6 6 6 6 7 9 11 12 13 13 14 14 14 14 14 13 15 16 16 17 19 19 18 17 18 21 22 22 22 23 23 22 21 21 23 24 25 26 26 27 28 28 28 30 30
1 2 3 3 3 4 4 3 3 5 4 4 8 7 6 4 1 4 4 2 1 0 1 2 1 1 3 4 5 4 3 2 4 4 5 6 6 6 7 6 6 6 5 6 7 8 10 11 12 13 14 14 14 14 14 13 14 16 16 16 19 20 19 18 20 21 22 22 23 23 24 24 23 22 23 23 24 25 27 27 27 28 28 29 30 31
4 3 2 4 4 2 1 1 2 5 3 6 9 6 3 3 3 4 3 2 3 1 0 1 3 2 3 5 5 3 4 4 4 4 5 6 7 7 8 8 8 7 6 7 8 9 9 11 12 14 15 15 14 14 13 13 15 16 16 18 20 19 19 20 21 22 22 23 24 24 24 25 24 24 24 25 25 26 28 28 28 28 28 28 29 29
3 4 3 4 4 4 3 4 4 4 5 7 7 4 4 5 4 4 3 2 3 2 1 2 3 2 2 4 5 4 5 5 5 5 5 5 7 8 8 8 8 8 8 8 9 9 9 11 13 15 16 16 15 14 14 14 15 16 18 19 20 19 19 21 21 21 23 24 25 26 26 26 26 26 26 27 27 27 28 28 29 29 28 27 27 27
3 3 3 3 3 3 5 6 4 3 4 6 4 2 3 3 2 4 3 2 2 3 2 2 3 3 2 2 4 4 4 4 5 6 5 6 7 8 8 7 8 8 8 9 9 9 10 11 13 14 16 17 16 15 14 14 15 17 19 20 19 19 20 21 21 22 23 24 25 26 27 27 27 27 27 27 26 27 28 28 29 28 28 26 25 25
2 2 2 1 2 4 6 7 6 5 5 6 7 4 3 3 3 4 4 4 4 3 2 1 2 2 2 2 2 3 4 2 3 4 5 5 6 6 6 6 7 7 8 9 9 10 10 11 12 14 17 18 17 15 15 15 15 18 20 19 19 19 20 20 21 22 23 24 26 26 26 27 28 28 27 26 25 26 27 27 28 28 28 26 26 26
2 3 2 2 1 2 4 3 3 3 3 4 6 6 5 5 5 5 5 5 5 4 3 1 1 1 1 0 3 5 5 3 3 4 4 4 5 6 6 7 8 8 9 9 9 10 10 11 12 14 16 19 18 16 16 16 16 18 19 18 18 19 19 20 20 21 23 24 25 26 26 27 28 27 27 26 26 26 27 27 27 28 28 27 27 27
2 3 3 4 4 4 5 6 4 3 4 3 5 5 5 6 6 5 5 5 4 3 3 3 3 3 3 4 5 6 5 5 5 5 4 4 5 6 7 7 8 8 8 9 10 11 11 12 14 15 17 19 20 18 18 18 18 18 18 18 18 18 18 19 19 20 22 24 24 26 26 25 26 26 27 27 27 27 27 27 27 28 29 29 28 28
2 3 3 3 4 5 9 10 7 6 8 8 8 8 7 6 6 6 5 4 3 3 4 5 6 6 6 6 5 6 6 6 6 5 5 5 6 6 6 7 7 8 9 10 11 11 12 13 14 16 18 20 20 19 19 19 19 19 18 18 18 16 17 17 18 19 22 24 24 25 25 24 25 26 27 28 28 28 28 27 27 28 30 31 29 29
3 4 3 2 2 6 8 7 4 3 6 6 5 6 6 5 5 5 5 4 5 6 6 6 7 8 9 9 8 6 6 6 6 6 6 7 7 8 8 8 9 10 11 12 12 12 13 14 15 17 19 20 19 19 19 20 20 19 19 18 17 15 15 16 17 20 22 23 24 24 24 24 25 26 26 27 29 29 30 29 27 26 28 31 30 29
7 7 7 6 5 6 6 6 6 4 4 3 2 4 3 4 6 6 6 6 7 8 8 7 6 6 7 10 12 10 9 9 9 8 8 9 10 10 10 11 12 13 13 13 13 13 14 15 15 17 19 19 19 19 20 21 21 20 19 18 15 13 14 15 17 20 22 23 23 24 24 25 25 26 26 27 28 28 29 31 30 28 28 29 29 28
Wind_Direction
169 183 214 210 219 217 215 215 228 256 287 331 346 325 306 296 319 62 101 163 173 187 203 209 222 176 137 131 118 105 96 95 95 90 84 77 69 63 62 61 58 58 50 40 35 30 29 26 24 23 20 19 19 20 22 24 24 23 23 24 23 22 26 28 27 28 29 24 24 32 33 28 31 37 43 50 51 49 46 46 54 64 66 68 75 73
177 210 232 226 229 235 231 223 225 239 264 298 315 326 310 298 340 64 107 140 98 74 207 215 224 167 125 120 108 94 85 79 82 91 88 82 76 65 59 58 55 54 47 39 33 28 27 25 24 24 23 21 20 17 18 20 19 18 21 24 23 21 24 28 25 26 28 22 18 22 24 26 34 40 41 42 45 45 45 46 47 54 59 60 65 66
223 237 243 247 249 247 259 325 287 250 256 283 287 280 283 278 291 67 79 130 102 88 245 258 240 134 109 101 88 77 79 71 64 75 78 78 75 63 57 53 48 48 40 35 31 26 25 25 24 24 23 23 22 19 18 19 19 18 18 21 24 24 24 26 26 27 28 25 26 31 33 36 40 43 42 41 42 43 45 44 42 47 52 52 54 57
199 227 273 303 348 336 336 355 343 333 315 285 276 264 266 273 262 261 306 317 324 67 52 314 319 128 112 89 81 75 86 87 76 74 73 73 76 70 63 55 49 48 39 35 32 25 25 25 25 24 22 22 22 22 20 19 19 18 17 18 23 25 26 27 27 30 31 30 35 41 43 47 47 41 39 40 41 41 41 40 41 44 46 47 50 51
271 44 359 356 29 17 355 335 304 301 305 252 233 242 246 258 286 57 135 73 2 350 64 4 324 199 170 153 118 102 106 103 93 87 78 72 78 75 68 61 54 52 44 39 35 27 26 26 26 25 22 22 23 22 21 20 20 19 18 21 24 25 27 29 29 30 34 35 38 40 41 42 39 32 29 26 25 28 30 31 36 40 41 43 46 48
299 27 355 353 34 28 22 319 273 206 257 256 228 250 248 239 196 97 130 115 20 286 206 163 268 266 176 160 139 134 131 115 99 89 82 74 72 69 64 59 53 53 51 44 40 35 30 28 28 26 23 22 22 21 21 21 22 22 21 23 27 28 27 29 30 32 35 36 37 37 34 30 25 22 21 18 14 17 21 24 30 36 39 41 43 44
347 48 23 19 37 22 25 273 331 346 243 248 303 327 308 243 187 135 151 162 196 255 215 175 214 272 171 136 127 138 127 111 101 87 83 76 67 66 62 58 52 48 48 46 43 38 34 30 28 27 25 23 21 19 20 23 24 25 24 24 28 30 29 29 31 35 36 35 36 37 35 29 24 18 15 14 14 14 18 24 30 34 36 38 41 41
359 34 38 39 83 53 264 245 2 354 277 224 335 346 8 357 332 144 172 203 240 298 315 202 218 263 251 143 130 136 123 117 113 94 87 81 74 74 67 62 59 51 47 45 42 39 35 32 30 29 27 24 22 21 21 23 23 25 26 25 28 31 32 33 34 37 38 35 34 34 33 30 27 20 13 15 20 19 19 25 30 32 33 35 37 38
5 31 21 4 34 158 352 320 355 351 333 81 350 345 11 20 10 7 257 225 271 288 262 225 211 252 255 141 134 145 138 151 136 111 103 91 79 80 73 67 63 56 52 48 44 42 37 33 31 30 29 26 25 24 24 24 24 26 27 27 30 31 31 33 35 38 40 39 37 35 31 27 25 23 20 22 24 24 23 24 26 27 28 30 33 33
55 38 10 8 21 18 342 320 330 351 342 26 353 344 349 6 17 5 306 228 267 255 243 221 187 217 248 154 157 164 204 214 147 111 94 88 78 75 73 67 61 56 53 48 44 41 38 34 30 28 29 27 25 25 25 26 26 26 27 27 29 30 30 31 34 38 39 39 38 36 33 26 21 21 23 24 25 25 24 23 22 23 23 23 25 27
111 39 47 52 18 325 308 299 268 233 294 324 6 351 330 302 240 183 244 230 252 248 241 214 181 195 222 134 99 93 341 322 132 115 99 93 83 76 72 64 58 53 48 44 42 38 35 33 29 28 28 25 24 25 25 26 26 25 26 27 27 28 29 29 32 36 37 37 37 36 34 29 23 22 20 20 21 20 20 19 16 17 19 19 19 20
82 44 58 56 19 358 327 305 244 147 327 12 76 327 295 264 231 162 243 204 217 245 241 191 182 203 218 176 58 51 16 22 86 113 111 102 90 82 75 67 60 54 50 45 39 35 30 28 27 25 25 23 22 23 23 23 24 25 25 25 26 27 28 28 29 33 35 35 35 34 34 32 28 27 23 18 17 15 13 13 12 13 16 17 18 19
85 40 20 6 39 24 347 303 80 75 35 125 176 212 238 198 156 186 210 198 221 248 271 166 187 206 210 83 59 56 42 43 70 94 104 103 96 88 81 72 64 55 52 47 39 35 31 27 25 23 23 22 21 21 21 21 22 23 23 24 25 24 25 26 27 30 33 33 32 31 31 30 28 29 28 22 19 16 12 13 13 12 12 12 13 15
120 33 9 353 12 11 356 355 67 39 359 333 176 163 205 213 223 218 205 206 234 247 302 179 193 201 138 79 62 64 64 59 68 80 88 95 94 91 85 78 69 61 54 50 44 38 34 30 28 25 23 23 21 20 20 21 21 22 22 22 23 22 23 25 25 27 29 29 29 28 29 28 25 26 27 24 21 19 18 18 15 14 13 11 11 11
194 201 4 3 343 349 15 42 33 331 315 307 303 134 229 295 269 235 193 185 295 305 289 210 195 227 170 93 72 76 79 73 76 83 86 87 88 87 81 74 66 61 54 50 48 43 37 33 31 28 26 24 23 21 21 22 21 21 21 21 21 20 20 22 23 24 25 26 26 26 27 27 24 23 23 23 22 20 21 20 18 18 17 14 14 13
118 128 6 19 16 4 19 28 356 330 291 302 329 187 354 12 327 279 286 241 268 356 303 225 136 40 85 108 106 99 91 90 95 97 97 93 88 81 73 67 63 57 54 49 46 44 38 35 33 31 28 25 24 22 22 22 21 21 20 20 21 20 19 22 22 21 22 22 23 24 25 24 23 23 23 21 20 20 21 21 19 19 18 16 15 14
105 96 338 178 70 41 31 3 7 10 274 295 357 11 300 302 142 290 292 252 186 257 239 206 176 98 114 115 105 108 105 105 108 103 101 94 84 78 69 64 62 58 57 52 47 45 38 35 33 31 29 26 24 23 22 22 21 21 20 19 20 19 19 20 21 20 20 20 21 21 21 21 21 22 23 20 18 17 20 21 19 18 18 18 17 14
78 320 334 333 75 52 14 324 38 27 6 338 349 345 318 274 109 324 281 287 259 258 237 204 204 184 165 146 69 127 127 115 115 108 102 97 87 81 74 69 67 61 60 55 51 46 39 36 33 30 29 27 25 23 22 22 21 21 22 20 19 18 17 17 18 18 18 19 19 17 17 18 17 17 19 20 17 15 18 19 18 18 16 16 16 14
2 349 344 327 328 49 16 353 73 9 3 20 328 336 359 45 23 312 218 275 271 255 261 229 218 201 103 73 55 163 144 121 121 117 109 105 96 89 84 78 71 63 59 54 50 44 39 36 33 30 28 26 24 23 22 22 21 21 21 20 19 19 16 16 17 16 17 17 16 15 14 14 15 13 15 17 15 13 16 17 16 16 14 14 15 11
316 161 149 308 302 335 31 28 28 343 347 4 5 1 21 7 299 301 197 356 291 255 279 253 223 154 44 20 338 153 135 126 134 127 110 100 93 93 95 89 80 71 62 54 50 47 41 37 33 31 27 24 22 21 20 20 20 19 18 17 18 17 15 17 18 15 14 14 13 13 11 10 12 11 11 14 13 11 13 13 13 12 10 11 12 9
324 92 147 312 327 345 59 38 33 13 345 354 18 23 6 333 311 331 297 83 22 275 285 277 248 203 59 352 339 108 123 131 142 122 108 105 96 92 91 88 89 82 69 61 55 49 43 39 35 31 27 23 21 19 18 17 16 15 15 13 13 14 13 14 15 13 12 11 10 10 8 6 8 8 9 12 10 8 9 9 9 8 6 7 8 7
350 35 349 325 358 50 85 35 15 25 17 20 23 12 1 355 1 310 271 45 23 313 273 284 274 284 73 330 342 73 110 123 130 120 117 119 108 99 88 77 78 75 68 63 55 49 45 39 33 30 26 23 21 17 15 14 13 12 11 10 11 11 9 10 11 10 10 10 9 8 5 3 4 4 6 8 7 5 6 5 6 6 5 4 4 4
3 20 308 326 44 80 101 85 25 21 45 71 54 20 16 18 40 96 244 0 4 327 37 122 246 274 337 309 352 43 66 86 108 118 124 122 112 109 104 95 89 82 77 69 59 53 48 41 34 29 26 23 20 16 12 11 10 9 8 6 7 7 6 6 6 5 7 8 6 5 3 1 1 2 4 6 4 2 2 1 2 3 2 2 2 1
1 22 223 149 88 84 96 86 38 17 50 78 55 27 38 49 75 130 207 206 309 291 345 269 254 261 310 301 14 54 58 73 92 109 118 122 123 123 119 117 109 96 90 78 69 61 51 46 37 29 25 21 18 15 11 9 6 6 6 4 3 2 1 3 2 1 5 7 4 3 0 359 0 2 3 2 0 -0 359 357 357 359 359 359 359 358
9 79 39 122 143 112 80 42 7 357 18 57 70 57 71 78 64 273 226 133 254 235 175 209 257 191 304 312 22 76 78 93 103 113 125 132 135 135 130 124 114 102 93 78 71 62 52 48 38 30 27 21 17 13 8 6 4 3 3 1 0 358 357 359 359 358 1 3 1 359 356 355 357 360 360 357 356 358 357 355 354 355 356 357 356 355
22 48 30 132 185 236 204 151 198 338 349 16 100 97 100 97 103 286 3 66 227 274 149 222 257 284 319 327 9 122 128 130 126 121 134 140 134 138 135 123 116 103 88 76 67 57 51 49 38 32 28 20 16 12 6 3 2 1 360 359 359 355 354 356 355 354 358 358 355 353 352 351 353 355 354 352 353 354 354 353 353 353 355 356 353 352
87 51 43 96 136 164 161 146 35 14 342 286 305 319 308 319 133 128 98 218 195 359 317 252 331 359 325 328 291 215 186 185 170 152 163 167 143 141 137 125 116 104 94 86 72 58 50 45 38 31 25 20 15 9 5 1 359 358 356 356 357 354 353 354 351 352 356 353 349 349 349 348 348 349 348 347 349 349 349 350 350 351 353 353 352 351
123 54 19 65 97 109 143 125 24 30 288 265 287 296 296 309 302 167 194 233 281 356 282 250 13 336 280 283 276 237 211 214 204 188 191 186 160 142 129 122 119 108 102 93 76 65 51 39 34 28 21 17 10 5 3 358 357 357 354 353 353 351 352 351 348 351 354 350 347 347 345 344 344 344 343 344 345 345 344 346 347 349 350 350 350 349
100 42 318 35 55 348 249 154 88 57 265 259 269 277 279 288 283 256 237 243 254 262 253 273 308 291 283 300 287 259 239 236 226 210 192 160 136 128 121 126 131 121 109 96 77 65 52 39 31 26 19 12 6 2 359 355 355 353 350 351 349 348 350 348 346 350 349 344 344 343 340 341 341 340 341 341 342 341 340 343 344 345 347 348 347 345
83 107 140 164 307 304 305 285 221 252 276 272 266 265 267 266 264 263 261 255 253 256 263 281 284 278 281 290 286 282 273 264 256 223 167 137 129 129 134 152 153 141 134 111 86 72 61 45 32 28 19 9 4 0 354 352 351 348 346 346 345 345 346 345 346 348 343 340 341 339 338 339 338 339 340 340 339 337 337 340 340 341 344 345 342 342
26 99 127 141 343 315 331 323 271 259 276 279 274 262 253 255 258 257 257 256 257 262 270 275 276 280 285 281 306 349 18 12 359 17 118 138 149 149 159 179 166 151 145 121 103 83 61 45 36 30 16 5 2 356 349 347 345 342 342 342 341 341 341 342 344 343 338 338 338 336 337 338 337 337 338 338 338 335 335 336 335 337 340 339 338 339
30 91 128 88 77 277 317 328 291 289 292 280 273 264 244 233 238 241 238 237 238 251 266 269 269 279 289 116 34 6 38 27 6 32 99 179 171 163 177 185 168 154 139 121 112 88 63 47 37 27 14 2 353 347 344 343 338 337 339 338 336 335 336 340 341 336 335 336 335 335 337 336 335 336 336 337 337 335 336 336 334 335 335 334 334 335
42 73 105 98 136 252 276 274 273 312 323 282 262 254 225 211 220 228 230 234 232 237 252 257 258 275 296 149 292 288 215 229 256 171 282 231 157 151 168 168 149 135 122 115 110 92 73 54 38 25 7 351 342 339 339 335 331 332 332 329 329 331 333 335 334 332 332 333 332 333 335 334 334 334 334 335 335 335 336 336 335 335 333 331 331 330
63 2 26 109 112 249 250 254 299 358 327 255 260 274 184 177 209 231 244 253 253 256 267 274 282 299 301 293 294 288 182 195 127 83 53 42 106 141 151 130 118 117 115 120 117 98 72 51 34 7 346 338 332 328 327 327 327 325 321 322 325 328 329 328 328 329 328 328 330 332 332 332 332 331 331 332 333 334 334 333 332 333 332 330 329 328
105 38 0 127 112 249 254 298 18 325 235 226 272 279 117 89 239 257 271 270 266 269 274 279 282 283 286 295 8 87 100 87 70 76 76 69 92 140 146 130 125 130 132 131 122 103 68 45 16 342 331 325 320 320 323 324 323 318 316 320 322 322 323 323 323 324 324 324 327 328 329 330 329 328 328 329 331 331 329 329 330 330 329 328 326 326
125 68 289 186 158 291 320 98 216 264 269 274 259 232 196 197 239 259 273 259 251 257 260 262 265 264 275 10 75 84 80 80 84 212 182 144 86 72 118 132 134 133 127 119 118 107 71 35 336 321 316 312 315 319 321 321 319 317 316 317 317 317 318 319 319 320 321 321 323 325 327 327 325 324 325 326 327 327 326 327 327 325 326 326 324 323
162 222 344 119 166 127 97 243 254 302 317 318 293 162 122 141 141 102 273 254 253 270 268 264 271 273 275 92 94 83 50 357 294 275 114 89 66 56 70 98 111 118 119 116 121 128 103 295 296 306 308 310 314 317 319 319 316 314 313 312 313 314 314 314 315 316 317 317 320 322 322 322 321 321 321 322 322 322 322 322 321 322 324 324 321 320
233 244 70 86 136 115 91 301 311 324 303 242 132 88 73 74 74 65 337 272 254 255 255 255 270 284 123 118 119 92 57 5 303 276 66 70 85 89 87 99 113 125 136 144 165 209 271 294 305 312 311 309 312 316 316 311 308 310 311 310 312 311 310 311 311 312 314 315 315 315 315 317 318 315 315 316 316 316 316 316 316 317 319 318 317 317
13 343 42 83 302 144 130 217 249 256 254 201 146 126 103 92 77 49 348 297 274 261 247 211 238 41 108 130 127 102 92 294 274 234 180 138 135 130 125 132 138 145 165 188 229 270 294 304 308 310 309 308 311 314 308 304 309 312 309 308 310 308 306 308 309 310 310 308 307 310 313 315 313 310 311 311 309 309 310 310 311 312 313 313 312 312
32 349 162 181 239 226 199 220 233 249 256 182 135 136 130 105 78 51 328 280 276 4 64 81 61 51 116 128 127 131 198 237 257 220 152 135 136 144 151 159 164 172 191 220 265 294 303 305 305 306 307 308 311 310 308 309 312 307 303 306 306 303 304 308 308 306 303 303 305 308 311 310 308 306 307 306 305 305 305 306 307 309 309 308 305 304
4 244 189 198 230 229 223 237 256 260 245 177 146 145 130 90 72 79 242 239 204 169 155 103 8 304 144 148 163 191 226 226 138 124 133 131 135 151 164 174 184 200 228 256 281 297 301 303 305 303 303 307 309 308 308 309 304 298 300 302 299 300 306 309 305 302 303 304 306 306 308 309 307 303 302 303 303 303 303 304 304 304 303 303 302 301
183 201 195 199 215 226 230 244 288 286 259 155 134 131 113 86 110 209 213 217 206 231 154 152 227 248 168 185 205 200 191 158 126 131 152 158 160 170 179 189 208 230 249 267 281 291 295 298 298 296 297 302 304 302 304 301 295 296 298 295 296 304 310 306 303 304 305 305 305 305 307 309 307 304 302 303 303 302 302 302 302 300 300 300 300 298
167 159 194 201 187 178 202 233 283 282 253 128 117 121 143 166 195 194 183 196 208 223 9 196 223 213 176 206 230 200 167 173 172 171 181 183 182 194 203 208 220 233 243 260 276 284 287 288 287 289 294 299 299 299 301 296 293 293 292 292 301 310 309 305 305 307 305 304 304 305 307 307 307 306 305 304 304 302 300 301 301 300 300 300 298 296
180 171 187 201 180 151 170 210 219 225 203 163 145 161 202 196 168 152 161 184 181 186 254 255 258 271 185 211 237 212 183 190 198 192 193 198 199 204 208 211 221 236 251 265 277 282 281 280 281 286 292 297 298 299 298 293 291 289 288 295 307 310 306 306 309 307 304 305 305 306 307 308 309 310 308 307 307 304 301 302 302 300 300 299 296 293
231 191 170 195 205 191 209 225 216 181 192 206 205 182 176 187 138 127 154 205 201 198 216 228 252 292 313 276 255 230 206 204 199 192 191 199 202 202 204 212 226 243 259 269 276 282 281 279 281 285 291 296 299 299 297 294 289 285 289 300 308 307 305 307 308 304 304 305 305 307 310 311 311 311 310 310 309 305 303 303 302 300 300 299 295 291
239 133 134 196 283 295 276 254 231 218 217 225 237 239 201 196 175 148 175 218 226 229 257 256 240 284 341 343 271 242 239 234 205 193 185 181 191 199 208 225 239 249 261 269 276 283 284 280 279 281 288 295 300 298 297 295 288 285 293 303 307 305 305 306 304 302 303 304 306 309 311 310 310 312 312 312 310 306 304 304 302 300 299 297 294 290
225 144 157 216 254 315 290 259 217 224 217 204 223 238 237 227 203 173 191 221 230 243 260 246 199 245 345 286 237 241 251 255 233 215 194 182 201 220 231 243 250 253 260 267 276 282 280 275 276 279 284 291 297 299 298 297 293 293 298 303 305 305 305 303 301 301 303 305 307 309 310 309 310 312 312 311 310 307 305 304 301 298 296 295 293 292
209 149 172 213 205 214 254 264 265 272 266 237 223 225 233 238 223 202 208 215 204 210 225 212 206 224 231 228 227 235 250 252 234 224 210 200 215 230 240 248 253 257 263 269 275 279 277 274 276 279 282 287 294 299 299 298 300 302 303 305 307 307 303 300 300 302 303 304 306 308 309 310 310 310 309 308 308 307 305 304 303 299 295 294 292 291
121 145 170 195 214 254 274 273 268 274 276 263 244 234 236 237 224 208 204 201 191 204 224 229 228 228 231 234 228 225 238 244 234 225 220 220 227 238 247 253 258 261 266 273 277 279 277 274 276 279 282 287 293 299 299 300 304 307 306 306 308 306 300 299 302 303 303 305 307 309 310 309 307 306 306 307 308 308 307 305 303 299 296 296 295 291
147 197 187 155 221 257 261 248 213 235 274 265 226 216 222 208 182 173 176 193 217 223 221 228 236 234 233 238 234 223 226 238 236 228 226 232 239 247 253 259 263 267 272 278 279 278 275 276 279 281 284 288 293 296 297 301 306 308 307 307 309 306 300 301 302 301 302 305 308 309 309 307 306 307 309 310 310 310 309 309 307 300 295 295 296 294
194 204 180 180 218 235 225 201 175 186 251 264 142 142 158 147 147 171 195 208 222 223 213 212 226 233 235 237 234 227 227 234 235 231 234 242 246 252 258 262 266 272 278 279 278 278 278 280 282 282 284 289 294 294 295 299 304 307 309 310 310 305 301 300 298 297 300 305 308 310 309 307 307 310 312 311 311 310 309 310 310 307 303 300 299 298